219P/LINEAR (2024)

Japanese version
Home page
Updated on May 29, 2022

---------------------------------------------------------------------

* Profile

* Orbital Elements

Epoch 2024 Feb. 20.0 TT = JDT 2460360.5
T 2024 Feb. 13.85813 TT                                 MPCW
q   2.3548488            (2000.0)            P               Q
n   0.14163241     Peri.  107.63229     +0.91600310     +0.36986372
a   3.6449727      Node   230.95347     -0.39968345     +0.87470898
e   0.3539461      Incl.   11.54004     +0.03451753     +0.31318530
P   6.96
From 519 observations 2002 June 5-2016 May 15, mean residual 0".7.
     Nongravitational parameters A1 = -1.63, A2 = -0.0974.

* Finding Charts

* Magnitudes Graph

        m1 = 7.3 + 5 log d + 20 log r(t + 70)

---------------------------------------------------------------------

The orbital elements are published on M.P.E.C. 2016-K18.
The charts are made with StellaNavigator Ver.10 (AstroArts).
The magnitudes graphs are made with Comet for Windows.

---------------------------------------------------------------------

Copyright(C) Seiichi Yoshida (comet@aerith.net). All rights reserved.